This is the latest recevied weather packets stored in our database for station/object W2EH. If no packets are shown the sender has not sent any weather packets the latest 10 day(s).
| Time | Temp. | Humidity | Pressure | Rain* | Wind** | Luminosity | Snow |
|---|---|---|---|---|---|---|---|
| 1777907329 | 21.11° C | 69% | 1013.5 hPa | 0 mm | - | 521 W/m² | - |
| 1777907025 | 21.11° C | 70% | 1013.5 hPa | 0 mm | - | 454 W/m² | - |
| 1777906723 | 20.56° C | 70% | 1013.6 hPa | 0 mm | - | 153 W/m² | - |
| 1777906419 | 20.56° C | 71% | 1013.7 hPa | 0 mm | - | 106 W/m² | - |
| 1777906116 | 20.56° C | 71% | 1013.6 hPa | 0 mm | - | 184 W/m² | - |
| 1777905812 | 20.56° C | 72% | 1013.7 hPa | 0 mm | - | 119 W/m² | - |
| 1777905510 | 20° C | 71% | 1013.7 hPa | 0 mm | - | 65 W/m² | - |
| 1777905206 | 20° C | 72% | 1013.8 hPa | 0 mm | - | 129 W/m² | - |
| 1777904904 | 20° C | 72% | 1013.6 hPa | 0 mm | - | 62 W/m² | - |
| 1777904601 | 20° C | 72% | 1013.4 hPa | 0 mm | - | 51 W/m² | - |
| 1777904298 | 20° C | 72% | 1013.4 hPa | 0 mm | - | 69 W/m² | - |
| 1777903995 | 19.44° C | 73% | 1013.7 hPa | 0 mm | - | 45 W/m² | - |
| 1777903692 | 19.44° C | 73% | 1013.7 hPa | 0 mm | - | 41 W/m² | - |
| 1777903388 | 18.89° C | 74% | 1013.5 hPa | 0 mm | - | 44 W/m² | - |
| 1777903084 | 18.89° C | 74% | 1013.7 hPa | 0 mm | - | 37 W/m² | - |
| 1777902781 | 18.89° C | 74% | 1013.6 hPa | 0 mm | - | 32 W/m² | - |
| 1777902479 | 18.89° C | 75% | 1013.8 hPa | 0 mm | - | 52 W/m² | - |
| 1777902175 | 18.33° C | 75% | 1013.4 hPa | 0 mm | - | 31 W/m² | - |
| 1777901873 | 18.33° C | 76% | 1013.5 hPa | 0 mm | - | 48 W/m² | - |
| 1777901570 | 17.78° C | 77% | 1013.7 hPa | 0 mm | - | 59 W/m² | - |
| 1777901268 | 17.78° C | 77% | 1013.6 hPa | 0 mm | - | 48 W/m² | - |
| 1777900965 | 17.78° C | 77% | 1013.5 hPa | 0 mm | - | 68 W/m² | - |
| 1777900662 | 17.78° C | 78% | 1013.7 hPa | 0 mm | - | 56 W/m² | - |
| 1777900359 | 17.22° C | 79% | 1014 hPa | 0 mm | - | 51 W/m² | - |
| 1777900056 | 16.67° C | 79% | 1013.7 hPa | 0 mm | - | 32 W/m² | - |
* Rain latest hour (hover to see other rain measurements)
** Current wind speed in m/s (hover to see current wind gust speed)